ATLAS 5 CENTAUR DEB, 45474

Orbit data source: Space-Track

ATLAS 5 CENTAUR DEB, 45474 is space debris in HEO originally from a launch on Wed, 17 Oct 2018 UTC launched from the Air Force Eastern Test Range (AFETR). Debris objects in space refer to the collection of defunct objects orbiting the Earth. Examples of debris include non-operational satellites, rocket bodies, and fragments generated from explosions, collisions, or faulty payload assembly.

Loading next visibility...
Identifier
45474, 2018-079BW
Orbit
HEO
Country
Flag of USUS
Related business
Flag of USUnited Launch Alliance/Lockheed Martin (US)
Manufacturer
ULA Decatur
Mission
Spacecraft
Bus & Motor
Unknown
Mass
Unknown
Launch date (UTC)
2018-10-17 (7 years ago)
Launch vehicle
Unknown
Launch site
Air Force Eastern Test Range (AFETR)
Object type
Payload
Rocket body
Debris
Shape & HBR
Unknown shape, 1.1 m
Radar Cross Section
RCS unknown

Expand to show TLE details & history
Last TLE update: 1 day ago

TLE from 1 day ago
0 ATLAS 5 CENTAUR DEB
1 45474U 18079BW  26093.18137823 -.00000091  00000-0  00000+0 0  9992
2 45474  12.9754  68.1317 4473619 243.7703  64.0992  1.74188409 41681
Epoch: 2026-04-03T04:21Z
TLE epoch observation values (Epoch: 2026-04-03T04:21:11.079Z)
Latitude
-0.00005°
Longitude
171.29686°
Altitude
22,689.436 km
Speed
3.71 km/s
True Right ascension
04h 32m 26s
True Declination
0° 00' 00"
Sunlit
Object was in daylight at epoch
Visualization orbit readout
Latitude
Unknown
Longitude
Unknown
Altitude
Unknown
Speed
Unknown
Apparent Right ascension
Unknown
Apparent Declination
Unknown
Sunlit
N/A
Visualization observer readout
Local Sidereal Time
14:25:31
Azimuth
Unknown
Elevation
Unknown
Doppler factor
Unknown
Orbital elements
Apogee altitude
35,855.852 km
Perigee altitude
9,747.831 km
Semi-major axis
29,179.979 km
Eccentricity
0.44736
Inclination
12.9754°
RAAN
68.1317°
Arg. of periapsis
243.7703°
True anomaly
116.3336°
Mean anomaly
64.0992°
Eccentric anomaly
89.73087°
Mean motion
0.43543 °/min
Orbital period
826.77 mins
BSTAR
0
Loading maneuver chart data...
Computing Atmospheric mass density...

Documentation

Showing up to 5 results
|